Flag for Japan Weather past 2 weeks in Hamamatsu, Japan

Now
68 °F

Mild.


Feels Like: 68 °F
Forecast: 58 / 83 °F
Wind: 2 mph from East

Location: Omaezaki

Current Time: May 26, 2015 at 8:55:26 PM

Latest Report: May 26, 2015 at 8:00 PM


Visibility: 10 mi

Pressure: 29.79 "Hg

Humidity: 91%

Dew point: 65 °F

Location of HamamatsuLocation

Historic Weather in Hamamatsu — Graph

°F

Hamamatsu temperature yesterday

Maximum temperature yesterday: 75 °F (at 3:00 PM)
Minimum temperature yesterday: 61 °F (at 3:00 AM)
Average temperature yesterday: 68 °F

Past Weeks' High & Low Weather Summary

 TemperatureHumidityPressure
High75 °F (May 25, 3:00 PM)100% (May 16, 12:00 AM)30.21 "Hg (May 16, 12:00 AM)
Low57 °F (May 21, 5:00 AM)49% (May 21, 2:00 AM)29.44 "Hg (May 12, 9:00 PM)
Average66 °F84%29.81 "Hg
* Reported May 11 7:00 PM — May 26 7:00 PM, Hamamatsu, Weather by CustomWeather, © 2015

Note: Actual official high and low records may vary slightly from our data, if they occured in-between our weather recording intervals... More about our weather records

Advertising

Hamamatsu weather history for previous 24 hours

 ConditionsComfort  
Time TempWeatherWind HumidityBarometerVisibility
7:00 PM
Tue, May 26
69 °FMild.2 mph90%29.78 "Hg9 mi
6:00 PM69 °FMild.7 mph86%29.77 "Hg12 mi
5:00 PM71 °FMild.9 mph81%29.75 "Hg12 mi
4:00 PM72 °FMild.9 mph78%29.75 "Hg12 mi
3:00 PM72 °FMild.10 mph79%29.75 "Hg12 mi
2:00 PM72 °FMild.10 mph75%29.75 "Hg12 mi
1:00 PM72 °FMild.9 mph74%29.76 "Hg9 mi
11:00 AM73 °FMild.10 mph72%29.79 "Hg7 mi
10:00 AM72 °FMild.6 mph66%29.80 "Hg12 mi
9:00 AM70 °FMild.3 mph74%29.81 "Hg12 mi
8:00 AM69 °FMild.7 mph75%29.81 "Hg11 mi
7:00 AM68 °FMild.6 mph81%29.80 "Hg11 mi
6:00 AM66 °FMild.3 mph88%29.80 "Hg8 mi
5:00 AM63 °FFog.5 mph95%29.79 "Hg4 mi
4:00 AM63 °FMild.5 mph92%29.78 "Hg6 mi
3:00 AM63 °FMild.5 mph90%29.78 "Hg8 mi
2:00 AM64 °FMild.5 mph85%29.79 "Hg12 mi
1:00 AM65 °FMild.5 mph83%29.79 "Hg12 mi
12:00 AM64 °FMild.3 mph86%29.80 "Hg12 mi
11:00 PM
Mon, May 25
65 °FMild.1 mph85%29.80 "Hg12 mi
10:00 PM67 °FMild.2 mph83%29.82 "Hg12 mi
9:00 PM68 °FMild.3 mph80%29.82 "Hg12 mi
8:00 PM68 °FMild.9 mph77%29.79 "Hg12 mi
Weather by CustomWeather, © 2015

See weather overviewHow to use our weather pages